COSMOS 249 DEB, 15775

Orbit data source: Space-Track

COSMOS 249 DEB, 15775 is space debris in LEO originally from a launch on Sun, 20 Oct 1968 UTC launched from the Tyuratam Missile And Space Complex (TTMTR). Debris objects in space refer to the collection of defunct objects orbiting the Earth. Examples of debris include non-operational satellites, rocket bodies, and fragments generated from explosions, collisions, or faulty payload assembly.

Loading next visibility...
Identifier
15775, 1968-091DA
Orbit
LEO
Country
Flag of CISCIS
Related business
Manufacturer
Unknown
Mission
Spacecraft
Bus & Motor
Unknown
Mass
Unknown
Launch date (UTC)
1968-10-20 (58 years ago)
Launch vehicle
Unknown
Launch site
Tyuratam Missile And Space Complex (TTMTR)
Object type
Payload
Rocket body
Debris
Shape & HBR
Unknown shape, 1.1 m
Radar Cross Section
Small (<0.1 m²)

Expand to show TLE details & history
Last TLE update: 11 hours ago

TLE from 11 hours ago
0 COSMOS 249 DEB
1 15775U 68091DA  26126.12755913  .00001239  00000-0  15850-2 0  9995
2 15775  62.2979 183.4022 0662527 318.9415  36.3457 12.99187912562124
Epoch: 2026-05-06T03:03Z
TLE epoch observation values (Epoch: 2026-05-06T03:03:41.108Z)
Latitude
-0.00005°
Longitude
-86.51162°
Altitude
871.811 km
Speed
7.606 km/s
True Right ascension
12h 13m 36s
True Declination
0° 00' 00"
Sunlit
Object was in full shadow at epoch
Visualization orbit readout
Latitude
Unknown
Longitude
Unknown
Altitude
Unknown
Speed
Unknown
Apparent Right ascension
Unknown
Apparent Declination
Unknown
Sunlit
N/A
Visualization observer readout
Local Sidereal Time
22:16:41
Azimuth
Unknown
Elevation
Unknown
Doppler factor
Unknown
Orbital elements
Apogee altitude
1,770.588 km
Perigee altitude
757.929 km
Semi-major axis
7,642.396 km
Eccentricity
0.06625
Inclination
62.2979°
RAAN
183.4022°
Arg. of periapsis
318.9415°
True anomaly
41.16001°
Mean anomaly
36.3457°
Eccentric anomaly
38.72016°
Mean motion
3.24862 °/min
Orbital period
110.82 mins
BSTAR
0.001585
Loading maneuver chart data...
Computing Atmospheric mass density...

Documentation

Showing up to 5 results
|